Weather Roundup
Issued by NWS Chicago, IL

Home | Current Version | Previous Version | Text Only | Print | Product List | Glossary On
Versions: 1 2 3 4 5 6 7 8 9 10 11 12 13 14 15 16 17 18 19 20 21 22 23 24 25 26 27 28 29 30 31 32 33 34 35 36 37 38 39 40 41 42 43 44 45 46 47 48 49 50
000
NZUS59 KLOT 180308
HRRLOT

CHICAGO AREA WEATHER ROUNDUP
NATIONAL WEATHER SERVICE CHICAGO/ROMEOVILLE IL
900 PM CST FRI NOV 17 2017

NOTE: "FAIR" INDICATES FEW OR NO CLOUDS BELOW 12,000 FEET WITH NO
SIGNIFICANT WEATHER AND/OR OBSTRUCTIONS TO VISIBILITY.

* THESE STATIONS ARE NOT UNDER NWS QUALITY CONTROL. THEY ALSO MAY NOT
  REPORT WEATHER SUCH AS PRECIPITATION OR FOG.

ILZ005-006-012>014-019>023-180400-
NORTHEAST ILLINOIS

CITY           SKY/WX    TMP DP  RH WIND       PRES   REMARKS
OHARE          LGT RAIN  45  42  89 S12       29.59F FOG
MIDWAY         DRIZZLE   45  43  93 S14G21    29.61F FOG
AURORA         LGT RAIN  44  43  96 S10       29.60F FOG
LANSING*       DRIZZLE   43  42  99 S14       29.62F
JOLIET*        CLOUDY    47  45  94 S13G20    29.61F
WAUKEGAN       LGT RAIN  44  43  96 SW13      29.59F FOG
DUPAGE AIRPORT LGT RAIN  44  43  96 S14G23    29.59F FOG
WHEELING       LGT RAIN  45  44  97 S13       29.60F FOG
KANKAKEE*      CLOUDY    45  42  90 S15G23    29.64F
MORRIS*        CLOUDY    46  43  91 S18G26    29.60F
LEWIS AIRPORT* RAIN      44  43  95 SW12      29.60F
NORTHERLY ISL    N/A     43  40  89 S15         N/A
$$

WIZ051-052-058>065-066-070>072-180400-
SOUTHEAST WISCONSIN

CITY           SKY/WX    TMP DP  RH WIND       PRES   REMARKS
MILWAUKEE      LGT RAIN  43  42  97 CALM      29.60F FOG
KENOSHA*       LGT RAIN  44  41  89 SW7       29.59F FOG
RACINE*        LGT RAIN  43  42  97 SW6       29.61F FOG
BURLINGTON     DRIZZLE   44  44 100 SW9       29.59F
WAUKESHA       DRIZZLE   37  37 100 CALM      29.61S FOG
WEST BEND      DRIZZLE   37  37 100 CALM      29.60S
$$

INZ001>003-010>013-019-020-180400-
NORTHWEST INDIANA

CITY           SKY/WX    TMP DP  RH WIND       PRES   REMARKS
GARY*          CLOUDY    45  41  87 SE8       29.62F FOG
MICHIGAN CITY* NOT AVBL
RENSSELAER*    NOT AVBL
VALPARAISO     CLOUDY    44  40  85 S12       29.65F
$$

LMZ740>746-180400-
SOUTHERN LAKE MICHIGAN

STATION/POSITION TIME  SKY/WX   TEMP WIND        PRES    VSBY
                                AIR  DIR/SP/G
                 (UTC)          (F)  (DEG/KT/KT) (MB)    (MI)
HARRISON CRIB    0240            44  190/ 23/ 25   N/A
BURNHAM HARBOR   0300            43  170/ 12/ 14   N/A
CALUMET HARBOR   NOT AVBL
BURNS HARBOR     0240            43  180/ 16/ 23 1003.7F
MICHIGAN CITY    0240            43  160/ 17/ 24   N/A
$$

ABBREVIATIONS USED IN REMARKS
   TC - TEMPERATURE IN CELSIUS
  WCI - WIND CHILL INDEX
   HX - HEAT INDEX
  VSB - VISIBILITY
$$




USA.gov is the U.S. government's official web portal to all federal, state and local government web resources and services.